Weather History for KORB - February, 2013

Change the Weather History Date:

Wednesday, February 6, 2013

  Actual Average Record
Temperature  
Mean Temperature 6 °F -  
Max Temperature 17 °F 21 °F 44 °F (2002)
Min Temperature -4 °F 2 °F -29 °F (2007)
Degree Days  
Heating Degree Days 58    
Moisture  
Dew Point 5 °F    
Average Humidity 77    
Maximum Humidity 92    
Minimum Humidity 62    
Precipitation  
Precipitation 0.00 in - - ()
Sea Level Pressure  
Sea Level Pressure 29.99 in    
Wind  
Wind Speed 1 mph (SE)    
Max Wind Speed 5 mph    
Max Gust Speed -    
Visibility 8 miles    
Events Snow    
Averages and records for this station are not official NWS values.
T = Trace of Precipitation, MM = Missing Value Source: NWS Daily Summary

Daily Weather History Graph

Daily Weather History Graph

Search for Another Location

Airport or City:

Trip Planner

Search our weather history database for the weather conditions in past years. The results will help you decide how hot, cold, wet, or windy it might be!

Date:

Astronomy

Feb. 06, 2013 Rise Set
Actual Time 7:31 AM CST 5:20 PM CST
Civil Twilight 6:58 AM CST 5:52 PM CST
Nautical Twilight 6:22 AM CST 6:29 PM CST
Astronomical Twilight 5:45 AM CST 7:05 PM CST
Moon 4:25 AM CST (2/6) 1:30 PM CST (2/6)
Length of Visible Light 10h 53m
Length of Day
9h 48m
Waning Crescent, 17% of the Moon is Illuminated
Feb 6
Waning Crescent
Feb 10
New
Feb 17
First Quarter
Feb 25
Full
Mar 4
Last Quarter

Hourly Weather History & Observations

Time (CST) Temp. Windchill Dew Point Humidity Pressure Visibility Wind Dir Wind Speed Gust Speed Precip Events Conditions
12:13 AM -4.0 °F - -9.4 °F 78% 29.97 in 10.0 mi Calm Calm - N/A   Overcast
12:33 AM -2.2 °F - -7.6 °F 78% 29.96 in 10.0 mi Calm Calm - N/A   Overcast
1:13 AM 1.4 °F - -4.0 °F 78% 29.97 in 10.0 mi Calm Calm - N/A   Overcast
1:33 AM -0.4 °F - -5.8 °F 78% 29.98 in 10.0 mi Calm Calm - N/A   Overcast
1:53 AM 1.4 °F - -5.8 °F 72% 29.98 in 10.0 mi Calm Calm - N/A   Overcast
2:13 AM 1.4 °F - -5.8 °F 72% 29.98 in 10.0 mi Calm Calm - N/A   Overcast
2:33 AM 1.4 °F - -5.8 °F 72% 29.97 in 10.0 mi Calm Calm - N/A   Overcast
2:53 AM 1.4 °F - -5.8 °F 72% 29.97 in 10.0 mi Calm Calm - N/A   Overcast
3:13 AM 1.4 °F - -5.8 °F 72% 29.97 in 10.0 mi Calm Calm - N/A   Overcast
3:33 AM 1.4 °F - -5.8 °F 72% 29.97 in 10.0 mi Calm Calm - N/A   Overcast
3:53 AM 1.4 °F - -5.8 °F 72% 29.98 in 10.0 mi Calm Calm - N/A   Overcast
4:13 AM 1.4 °F - -5.8 °F 72% 29.97 in 10.0 mi Calm Calm - N/A   Overcast
4:33 AM 3.2 °F - -4.0 °F 72% 29.97 in 10.0 mi Calm Calm - N/A   Overcast
4:53 AM 3.2 °F - -4.0 °F 72% 29.97 in 10.0 mi Calm Calm - N/A   Overcast
5:11 AM 3.2 °F - -4.0 °F 72% 29.97 in 10.0 mi Calm Calm - N/A   Overcast
5:33 AM 3.2 °F - -2.2 °F 78% - 10.0 mi Calm Calm - N/A   Overcast
5:53 AM 5.0 °F - -2.2 °F 72% 29.96 in 10.0 mi Calm Calm - N/A   Overcast
6:13 AM 5.0 °F - -2.2 °F 72% 29.97 in 10.0 mi North - - N/A   Overcast
6:33 AM - - -2.2 °F N/A% 29.97 in 10.0 mi Calm Calm - N/A   Overcast
7:13 AM 5.0 °F - -2.2 °F 72% 29.98 in 10.0 mi Calm Calm - N/A   Overcast
7:33 AM 5.0 °F -2.1 °F -2.2 °F 72% 29.97 in 10.0 mi ESE 3.5 mph - N/A   Overcast
7:53 AM 6.8 °F -2.0 °F -0.4 °F 72% 29.98 in 10.0 mi SE 4.6 mph - N/A   Overcast
8:13 AM 6.8 °F -0.1 °F -0.4 °F 72% 29.99 in 10.0 mi ESE 3.5 mph - N/A   Overcast
8:33 AM 6.8 °F - -0.4 °F 72% 29.99 in 10.0 mi Calm Calm - N/A   Overcast
8:53 AM 8.6 °F - -0.4 °F 67% 30.00 in 10.0 mi Calm Calm - N/A   Overcast
9:13 AM 8.6 °F 2.0 °F -0.4 °F 67% 29.98 in 10.0 mi SE 3.5 mph - N/A   Overcast
9:33 AM 10.4 °F - 1.4 °F 67% 29.99 in 10.0 mi Calm Calm - N/A   Overcast
9:53 AM 10.4 °F 4.0 °F 1.4 °F 67% 29.99 in 10.0 mi SE 3.5 mph - N/A   Overcast
10:13 AM 12.2 °F 4.3 °F 1.4 °F 62% 29.99 in 10.0 mi SSE 4.6 mph - N/A   Overcast
10:33 AM 12.2 °F - 3.2 °F 67% 29.99 in 10.0 mi Calm Calm - N/A   Overcast
10:53 AM 14.0 °F - 3.2 °F 62% 29.99 in 10.0 mi Calm Calm - N/A   Overcast
11:13 AM 14.0 °F - 5.0 °F 67% 29.98 in 7.0 mi Calm Calm - N/A   Mostly Cloudy
11:33 AM 15.8 °F - 5.0 °F 62% 29.99 in 10.0 mi Calm Calm - N/A   Mostly Cloudy
11:53 AM 15.8 °F - 6.8 °F 68% 29.99 in 10.0 mi Calm Calm - N/A   Mostly Cloudy
12:13 PM 15.8 °F - 6.8 °F 68% 29.99 in 5.0 mi Calm Calm - N/A Snow Light Snow
12:33 PM 17.6 °F 12.3 °F 8.6 °F 68% 29.99 in 3.0 mi SSE 3.5 mph - N/A Snow Light Snow
12:53 PM 17.6 °F 10.7 °F 8.6 °F 68% 29.98 in 2.0 mi SSE 4.6 mph - N/A Snow Light Snow
1:13 PM 17.6 °F 10.7 °F 10.4 °F 73% 29.98 in 2.5 mi SSE 4.6 mph - N/A Snow Light Snow
1:33 PM 17.6 °F 10.7 °F 10.4 °F 73% 29.97 in 2.0 mi SE 4.6 mph - N/A Snow Light Snow
1:53 PM 17.6 °F - 12.2 °F 79% 29.97 in 2.0 mi Calm Calm - N/A Snow Light Snow
2:13 PM 17.6 °F - 12.2 °F 79% 29.96 in 2.5 mi Calm Calm - N/A Snow Light Snow
2:33 PM 17.6 °F 12.3 °F 12.2 °F 79% 29.96 in 1.8 mi ESE 3.5 mph - N/A Snow Light Snow
2:53 PM 17.6 °F 10.7 °F 12.2 °F 79% 29.96 in 1.8 mi ESE 4.6 mph - N/A Snow Light Snow
3:13 PM 17.6 °F 12.3 °F 12.2 °F 79% 29.97 in 1.5 mi SE 3.5 mph - N/A Snow Light Snow
3:33 PM 17.6 °F - 14.0 °F 86% 29.97 in 1.2 mi Calm Calm - N/A Snow Light Snow
3:53 PM 17.6 °F - 14.0 °F 86% 29.97 in 1.5 mi Calm Calm - N/A Snow Light Snow
4:13 PM 17.6 °F - 14.0 °F 86% 29.97 in 1.5 mi Calm Calm - N/A Snow Light Snow
4:33 PM 17.6 °F - 14.0 °F 86% 29.97 in 1.8 mi Calm Calm - N/A Snow Light Snow
4:53 PM 17.6 °F - 14.0 °F 86% 29.98 in 1.5 mi Calm Calm - N/A Snow Light Snow
5:13 PM 17.6 °F - 14.0 °F 86% 29.99 in 1.5 mi Calm Calm - N/A Snow Light Snow
5:33 PM 17.6 °F - 14.0 °F 86% 29.99 in 1.5 mi Calm Calm - N/A Snow Snow
5:53 PM 17.6 °F - 14.0 °F 86% 30.00 in 2.0 mi Calm Calm - N/A Snow Light Snow
6:13 PM 17.6 °F - 14.0 °F 86% 30.01 in 3.0 mi Calm Calm - N/A Snow Light Snow
6:33 PM 17.6 °F - 14.0 °F 86% 30.01 in 2.5 mi Calm Calm - N/A Snow Light Snow
7:13 PM 17.6 °F - 14.0 °F 86% 30.03 in 4.0 mi Calm Calm - N/A Snow Light Snow
7:33 PM 15.8 °F - 12.2 °F 86% 30.03 in 7.0 mi Calm Calm - N/A Snow Light Snow
7:54 PM 15.8 °F - 12.2 °F 86% 30.04 in 10.0 mi Calm Calm - N/A Snow Light Snow
8:13 PM 15.8 °F - 12.2 °F 86% 30.04 in 10.0 mi Calm Calm - N/A Snow Light Snow
8:33 PM 15.8 °F - 12.2 °F 86% 30.04 in 10.0 mi Calm Calm - N/A Snow Light Snow
8:53 PM 15.8 °F - 12.2 °F 86% 30.04 in 10.0 mi Calm Calm - N/A Snow Light Snow
9:13 PM 15.8 °F - 12.2 °F 86% 30.05 in 10.0 mi Calm Calm - N/A Snow Light Snow
9:33 PM 15.8 °F - 12.2 °F 86% 30.05 in 10.0 mi Calm Calm - N/A   Overcast
9:53 PM 15.8 °F - 12.2 °F 86% 30.05 in 10.0 mi Calm Calm - N/A   Overcast
10:13 PM 15.8 °F - 12.2 °F 86% 30.05 in 10.0 mi Calm Calm - N/A   Overcast
10:33 PM 15.8 °F - 10.4 °F 79% 30.07 in 10.0 mi Calm Calm - N/A   Overcast
10:53 PM 12.2 °F - 8.6 °F 85% 30.07 in 10.0 mi Calm Calm - N/A   Scattered Clouds
11:13 PM 10.4 °F - 8.6 °F 92% 30.07 in 10.0 mi Calm Calm - N/A   Mostly Cloudy
11:33 PM 12.2 °F - 8.6 °F 85% 30.07 in 10.0 mi Calm Calm - N/A   Overcast
11:53 PM 10.4 °F - 6.8 °F 85% 30.08 in 10.0 mi Calm Calm - N/A   Mostly Cloudy